Temp
-3 -4 -5 -4 -4 -5 -6 -6 -6 -5 -5 -5 -5 -5 -3 -2 -1 -1 -0 0 1 -0 -0 -1 0 1 1 1 1 1 0 1 3 4 6 7 8 8 7 7 8 8 8 7 8
-3 -4 -4 -5 -4 -5 -5 -5 -7 -7 -7 -6 -6 -6 -5 -4 -2 -1 -1 -0 1 -0 -1 -1 -0 0 0 1 0 -0 1 2 4 5 6 7 6 6 7 7 7 7 7 7 8
-3 -3 -4 -5 -5 -5 -6 -6 -7 -7 -7 -6 -7 -7 -6 -6 -5 -2 -1 -1 -0 -0 -1 -1 -2 -0 0 -0 -0 0 1 4 4 4 5 5 5 6 6 6 7 7 7 7 8
-3 -3 -4 -5 -5 -6 -7 -7 -7 -7 -7 -7 -7 -7 -6 -6 -6 -4 -3 -1 -1 -1 -1 -1 -2 -2 -1 -0 0 0 2 2 3 3 4 4 5 6 6 6 6 7 7 7 7
-3 -3 -3 -4 -5 -6 -7 -7 -7 -7 -7 -7 -7 -7 -7 -7 -5 -5 -5 -4 -2 -1 -2 -2 -2 -2 -2 -1 -1 -0 1 1 3 1 3 4 5 5 6 6 6 6 7 6 7
-3 -3 -3 -4 -5 -6 -7 -7 -7 -7 -7 -7 -7 -7 -7 -7 -7 -7 -7 -5 -3 -1 -1 -2 -1 -2 -2 -1 -1 -0 0 1 2 0 2 3 3 4 5 5 5 6 6 6 7
-3 -3 -3 -4 -6 -6 -7 -7 -7 -7 -7 -7 -8 -8 -7 -6 -7 -7 -6 -5 -6 -3 -2 -2 -2 -3 -2 -1 -1 -1 -0 0 0 1 1 2 3 4 4 4 4 5 6 6 6
-3 -3 -4 -5 -6 -7 -7 -7 -7 -7 -7 -7 -8 -7 -7 -7 -7 -6 -6 -6 -4 -5 -2 -2 -2 -2 -2 -2 -1 -1 -1 -1 -0 1 0 2 4 3 4 4 4 4 5 6 6
-3 -4 -4 -5 -6 -7 -8 -8 -8 -8 -7 -7 -7 -8 -7 -6 -6 -6 -6 -5 -5 -4 -5 -3 -2 -2 -2 -2 -1 -1 -1 -1 0 1 0 1 3 3 3 4 4 5 5 4 5
-3 -4 -4 -6 -6 -7 -8 -7 -7 -8 -8 -8 -8 -8 -7 -7 -7 -6 -6 -6 -5 -4 -4 -3 -2 -3 -2 -2 -1 -1 -1 0 1 1 0 1 2 1 2 3 4 5 5 5 4
-3 -4 -5 -6 -6 -7 -7 -7 -8 -8 -8 -8 -8 -8 -8 -8 -7 -7 -7 -6 -7 -6 -5 -3 -2 -2 -0 -1 -1 -1 -0 1 1 2 1 0 1 2 2 3 4 4 4 4 4
-3 -4 -4 -6 -6 -7 -8 -8 -8 -8 -8 -8 -8 -8 -8 -8 -7 -7 -7 -7 -6 -5 -4 -4 -2 -1 -2 -2 -1 -1 -0 1 2 1 1 1 1 1 2 3 3 4 5 4 3
-3 -3 -3 -4 -6 -8 -7 -8 -8 -8 -8 -8 -8 -8 -9 -8 -7 -8 -8 -7 -6 -5 -5 -4 -3 -3 -2 -2 -2 -1 -0 0 2 -0 0 1 1 1 2 2 2 4 4 5 4
-3 -3 -2 -3 -4 -7 -7 -7 -8 -8 -8 -8 -8 -8 -8 -8 -7 -8 -7 -7 -6 -5 -4 -3 -3 -3 -2 -2 -2 -1 1 0 1 0 0 1 1 3 2 2 2 3 5 5 5
-2 -3 -2 -2 -4 -5 -6 -7 -7 -8 -7 -7 -7 -8 -8 -8 -7 -6 -6 -6 -6 -3 -4 -3 -3 -3 -2 -2 -2 -2 -0 -0 -1 0 1 0 0 3 3 2 2 3 3 4 5
-2 -2 -2 -2 -2 -3 -5 -5 -6 -7 -7 -7 -7 -8 -7 -7 -6 -7 -6 -6 -5 -3 -3 -3 -3 -3 -2 -2 -2 -2 -1 -1 -2 -0 -1 1 1 2 3 3 3 2 3 3 4
-2 -2 -1 -2 -2 -2 -4 -5 -6 -6 -6 -6 -6 -6 -6 -5 -5 -4 -6 -5 -3 -3 -3 -4 -3 -3 -2 -3 -2 -2 -2 -2 -2 -2 -2 2 1 3 3 2 2 2 2 3 3
-1 -2 -2 -1 -2 -2 -3 -5 -5 -6 -6 -6 -5 -4 -4 -4 -4 -5 -5 -3 -3 -3 -3 -4 -4 -3 -3 -3 -2 -1 -2 -1 -1 -2 -1 1 1 2 2 1 1 0 1 1 2
-1 -1 -1 -1 -2 -2 -1 -6 -7 -6 -5 -4 -3 -5 -4 -4 -4 -4 -3 -3 -3 -3 -2 -3 -4 -3 -3 -3 -3 -3 -2 -1 -2 1 -1 0 1 -0 1 1 1 1 1 1 1
-1 -1 -1 -1 -1 -1 -1 -5 -5 -4 -4 -4 -4 -3 -3 -3 -3 -2 -2 -3 -2 -2 -2 -2 -4 -4 -4 -3 -3 -3 -2 -3 -2 -1 0 1 1 2 1 -0 1 1 1 1 1
-1 -1 -2 -2 -2 -1 -3 -5 -5 -5 -4 -3 -3 -3 -2 -1 -1 -2 -2 -3 -2 -1 -2 -2 -2 -3 -3 -3 -3 -3 -3 -2 -1 0 -1 -2 2 2 3 1 0 0 0 1 1
-1 -1 -2 -2 -1 -2 -4 -4 -3 -4 -4 -4 -3 -2 -2 -2 -2 -2 -3 -2 -2 -2 -2 -2 -2 -3 -3 -3 -2 -3 -2 -1 -1 -1 -0 -0 -1 -0 0 -0 -1 -1 0 0 1
-1 -1 -2 -2 -2 -2 -3 -3 -3 -3 -4 -4 -4 -3 -3 -2 -2 -3 -2 -2 -2 -2 -2 -2 -2 -3 -3 -3 -2 -2 -2 -2 -1 -1 -0 -2 -1 -1 -1 -2 -1 -1 -0 -0 0
-1 -1 -2 -2 -3 -2 -3 -4 -4 -3 -3 -3 -3 -3 -2 -2 -2 -2 -2 -2 -2 -2 -2 -1 -2 -2 -3 -2 -1 -2 -2 -2 -2 -1 -0 0 0 -1 -1 -1 -1 -1 -0 0 0
-1 -2 -2 -2 -3 -4 -4 -4 -4 -3 -3 -3 -3 -3 -3 -2 -3 -2 -2 -2 -2 -2 -2 -2 -2 -2 -2 -2 -2 -2 -2 -2 -2 -1 -0 -0 0 -0 -1 -1 -1 -2 -0 -0 -0
-2 -2 -3 -3 -3 -3 -4 -4 -5 -4 -3 -4 -4 -3 -3 -3 -3 -3 -2 -3 -3 -2 -2 -2 -2 -2 -2 -2 -2 -2 -2 -3 -3 -2 -1 -1 -1 -1 -1 -2 -2 -1 -0 -1 -1
-3 -3 -3 -3 -3 -4 -3 -3 -4 -4 -4 -4 -3 -4 -3 -3 -3 -3 -3 -3 -2 -3 -3 -3 -2 -2 -2 -2 -3 -3 -1 -2 -2 -1 -1 -1 -1 -1 -2 -2 -1 -1 -1 -1 -1
Height
3052 3048 3045 3041 3038 3035 3033 3030 3029 3028 3028 3028 3029 3030 3031 3032 3032 3035 3038 3046 3052 3057 3061 3064 3069 3075 3080 3084 3088 3096 3099 3101 3104 3111 3114 3119 3122 3124 3128 3132 3138 3139 3141 3141 3145
3048 3044 3039 3036 3032 3029 3026 3024 3022 3021 3020 3020 3020 3022 3023 3024 3023 3025 3033 3038 3046 3052 3055 3060 3064 3071 3075 3080 3084 3088 3091 3093 3102 3109 3112 3114 3112 3117 3123 3127 3130 3136 3135 3139 3143
3044 3039 3035 3030 3026 3023 3020 3017 3015 3014 3013 3012 3011 3013 3015 3017 3016 3020 3024 3030 3039 3046 3051 3056 3061 3067 3071 3075 3080 3084 3084 3092 3098 3105 3105 3107 3110 3118 3119 3124 3128 3133 3134 3137 3141
3040 3034 3030 3025 3021 3018 3016 3013 3011 3009 3007 3006 3006 3007 3008 3010 3015 3012 3016 3022 3031 3038 3045 3050 3056 3061 3065 3069 3074 3079 3083 3088 3097 3100 3102 3105 3109 3112 3116 3122 3128 3131 3133 3132 3136
3035 3030 3026 3021 3016 3013 3010 3008 3005 3003 3002 3001 3000 3001 3001 3003 3005 3009 3008 3014 3022 3029 3036 3044 3049 3056 3059 3066 3073 3075 3080 3085 3091 3092 3096 3099 3102 3107 3112 3120 3123 3123 3127 3129 3132
3031 3026 3021 3016 3011 3008 3005 3002 3000 2999 2997 2997 2996 2997 2997 2998 3003 3004 3005 3009 3014 3021 3029 3037 3043 3052 3060 3065 3070 3073 3077 3083 3087 3089 3091 3093 3096 3102 3110 3116 3119 3121 3123 3126 3129
3028 3023 3017 3012 3006 3003 3000 2997 2995 2994 2994 2993 2993 2993 2993 2996 2999 3001 3004 3007 3011 3015 3022 3032 3042 3049 3057 3062 3068 3073 3075 3080 3082 3086 3088 3090 3095 3097 3106 3110 3113 3115 3120 3123 3125
3026 3019 3013 3007 3001 2996 2992 2990 2989 2989 2990 2990 2991 2992 2990 2996 2998 3000 3001 3004 3007 3010 3018 3025 3036 3043 3052 3059 3064 3067 3071 3073 3078 3081 3086 3088 3091 3095 3102 3105 3107 3110 3114 3118 3120
3022 3016 3009 3002 2994 2989 2984 2983 2982 2983 2985 2987 2989 2990 2991 2993 2995 2997 2999 3000 3004 3007 3015 3024 3030 3037 3047 3054 3060 3063 3064 3069 3074 3079 3083 3083 3086 3092 3097 3101 3104 3107 3110 3114 3116
3019 3013 3005 2997 2990 2984 2981 2977 2976 2977 2980 2983 2986 2991 2991 2992 2992 2994 2995 2997 2999 3006 3013 3021 3026 3032 3040 3048 3048 3051 3057 3062 3067 3073 3078 3080 3082 3088 3095 3096 3098 3102 3105 3109 3112
3017 3010 3002 2994 2987 2981 2978 2974 2975 2976 2977 2982 2984 2985 2987 2989 2990 2991 2993 2993 2995 3000 3011 3017 3021 3023 3024 3034 3047 3053 3059 3063 3065 3071 3074 3075 3079 3084 3088 3090 3094 3097 3100 3104 3107
3016 3009 3001 2993 2985 2979 2976 2974 2974 2977 2977 2978 2981 2982 2984 2985 2987 2989 2991 2991 2992 2998 3004 3014 3012 3020 3035 3042 3047 3052 3058 3062 3066 3069 3072 3075 3075 3079 3083 3084 3087 3093 3096 3099 3101
3016 3008 3001 2995 2988 2981 2978 2975 2974 2975 2978 2979 2979 2979 2981 2983 2983 2986 2989 2989 2991 2993 3002 3011 3013 3024 3031 3040 3045 3048 3051 3057 3064 3066 3070 3072 3072 3073 3076 3080 3081 3085 3091 3092 3094
3016 3008 3002 2997 2992 2984 2981 2978 2977 2978 2979 2981 2977 2978 2978 2979 2980 2983 2987 2989 2991 2997 3002 3011 3017 3023 3030 3036 3043 3046 3051 3056 3061 3063 3065 3068 3069 3064 3068 3072 3075 3079 3082 3086 3087
3015 3008 3004 2996 2992 2988 2985 2981 2980 2980 2980 2981 2977 2977 2977 2979 2978 2981 2985 2989 2992 2998 3003 3004 3013 3022 3030 3035 3040 3043 3049 3053 3055 3061 3061 3064 3069 3060 3063 3065 3067 3072 3075 3077 3080
3018 3012 3008 3003 2995 2991 2988 2982 2983 2984 2982 2981 2978 2977 2977 2979 2979 2981 2984 2989 2987 2996 2992 3003 3014 3025 3029 3033 3038 3043 3048 3052 3055 3059 3060 3058 3062 3058 3057 3059 3063 3066 3067 3071 3075
3021 3016 3012 3008 3001 2996 2991 2988 2986 2988 2989 2984 2983 2982 2981 2978 2982 2986 2987 2988 2989 2995 3002 3010 3017 3022 3029 3033 3038 3041 3039 3046 3054 3057 3055 3053 3058 3054 3055 3056 3059 3060 3063 3066 3070
3024 3019 3016 3012 3006 3000 2995 2993 2992 2997 2991 2989 2985 2985 2987 2987 2989 2990 2990 2994 2996 2999 3006 3012 3022 3024 3026 3030 3033 3040 3039 3043 3044 3049 3048 3049 3050 3050 3053 3054 3056 3058 3059 3064 3066
3025 3021 3018 3013 3009 3005 2999 2996 3002 3000 2999 2995 2993 2991 2992 2991 2992 2994 2996 2996 2999 3003 3007 3013 3019 3022 3024 3026 3032 3036 3039 3044 3045 3042 3045 3046 3047 3048 3050 3051 3052 3055 3058 3060 3064
3026 3021 3018 3014 3012 3010 3004 3003 3006 3004 3001 2999 2998 2997 2996 2996 2996 2999 3000 3003 3005 3007 3008 3012 3017 3022 3024 3028 3032 3033 3038 3043 3041 3043 3040 3040 3040 3038 3043 3045 3049 3052 3055 3058 3062
3026 3025 3023 3018 3016 3011 3008 3010 3011 3008 3007 3004 3003 3005 3004 3002 3001 3000 3006 3008 3008 3009 3011 3013 3017 3025 3027 3028 3029 3032 3032 3036 3040 3038 3038 3040 3037 3036 3039 3041 3045 3050 3052 3056 3059
3029 3026 3024 3022 3020 3013 3013 3012 3012 3012 3011 3010 3008 3008 3008 3006 3005 3006 3008 3009 3010 3012 3015 3016 3017 3022 3026 3027 3028 3030 3032 3034 3035 3037 3037 3038 3039 3035 3038 3041 3045 3047 3051 3054 3057
3030 3026 3024 3023 3022 3017 3017 3016 3014 3013 3013 3012 3012 3010 3010 3009 3010 3009 3010 3012 3013 3014 3015 3017 3020 3024 3027 3030 3028 3029 3031 3032 3034 3036 3036 3039 3039 3038 3038 3040 3043 3047 3050 3052 3054
3032 3029 3028 3023 3022 3020 3018 3018 3017 3015 3014 3013 3013 3012 3011 3010 3009 3010 3011 3013 3014 3015 3016 3018 3019 3020 3023 3023 3024 3025 3027 3030 3032 3035 3035 3035 3036 3038 3038 3041 3043 3045 3048 3049 3050
3035 3033 3029 3029 3024 3022 3020 3019 3019 3016 3015 3015 3014 3013 3012 3013 3011 3012 3013 3014 3015 3016 3017 3018 3019 3020 3021 3022 3022 3022 3024 3026 3028 3032 3034 3034 3034 3035 3037 3039 3043 3044 3045 3046 3047
3034 3034 3032 3028 3027 3024 3020 3020 3019 3016 3016 3015 3015 3014 3013 3012 3013 3013 3013 3014 3015 3015 3016 3018 3019 3020 3021 3021 3021 3021 3021 3022 3025 3028 3031 3033 3033 3035 3037 3039 3041 3041 3043 3043 3043
3035 3031 3028 3028 3027 3025 3021 3019 3019 3018 3016 3014 3014 3014 3012 3012 3012 3012 3012 3012 3014 3015 3016 3018 3019 3020 3021 3020 3019 3019 3017 3018 3020 3023 3027 3029 3033 3034 3036 3037 3038 3038 3039 3039 3040
Wind_Speed
25 24 25 27 28 29 26 26 28 30 29 30 27 24 32 37 40 39 38 34 29 28 19 24 26 26 27 30 29 34 28 32 35 34 29 20 21 24 25 20 18 18 17 10 11
31 28 27 27 29 29 28 28 24 24 27 33 34 30 29 34 37 42 38 34 30 26 26 22 27 28 29 31 30 32 37 45 36 28 28 28 20 18 22 27 27 16 21 18 17
30 30 30 29 29 27 26 25 24 25 25 24 27 31 32 28 37 39 36 36 29 26 23 24 22 28 34 29 30 33 41 45 38 24 27 28 22 22 20 19 28 20 23 22 22
31 31 30 28 30 27 23 24 23 23 23 22 20 18 22 29 18 20 28 30 30 29 28 27 28 25 31 34 32 26 38 27 22 25 23 26 31 33 22 16 13 22 21 26 26
31 30 33 32 29 27 27 25 23 21 21 19 18 18 19 25 28 13 11 19 29 35 34 31 33 30 34 31 22 31 25 20 24 16 26 24 31 30 38 16 19 24 27 27 28
31 32 32 32 29 26 24 21 21 20 19 17 19 16 16 21 17 17 26 20 28 38 39 36 32 32 24 25 27 20 24 13 25 17 19 24 27 32 29 22 22 28 28 31 28
31 34 36 35 30 27 28 23 20 18 16 13 12 14 17 18 9 10 13 23 29 36 44 34 29 29 22 26 23 32 20 24 21 19 14 23 29 34 30 24 22 29 31 29 28
33 35 36 36 32 28 29 26 21 15 13 12 12 13 18 9 10 9 9 21 29 32 44 40 34 31 32 21 29 23 23 25 25 23 18 21 28 28 25 30 33 26 27 29 27
33 36 38 39 35 30 26 24 19 15 13 13 14 13 13 11 10 11 13 17 36 28 37 39 37 33 31 27 23 29 22 26 14 26 23 29 41 33 10 20 29 29 27 20 27
34 37 40 39 32 23 20 22 16 15 16 14 13 10 12 8 13 9 16 20 27 35 32 40 36 34 35 34 31 36 32 26 33 23 31 33 32 10 34 24 26 26 29 28 24
36 38 39 36 30 22 22 16 5 4 12 13 10 7 3 7 7 11 14 25 21 31 38 42 36 42 46 47 31 18 25 22 16 21 23 32 29 28 20 33 26 24 22 21 30
37 37 36 32 27 22 22 10 4 4 5 13 14 14 16 13 13 9 13 23 24 35 32 31 33 33 34 37 25 28 20 21 18 25 22 20 31 31 26 30 30 23 24 22 22
38 35 30 27 22 19 19 12 5 1 1 3 4 8 11 16 16 15 15 17 21 36 22 35 43 32 28 33 30 23 21 21 21 20 17 17 20 26 35 26 29 31 31 32 32
37 32 27 25 22 18 15 15 11 8 4 6 3 4 2 6 9 16 13 16 29 30 22 21 23 31 28 35 31 30 25 14 19 23 14 24 6 27 32 33 31 29 30 29 34
32 28 26 24 20 17 12 13 9 5 2 11 6 1 4 5 5 10 20 21 31 17 27 19 33 33 28 32 29 27 26 17 17 22 11 15 8 12 18 29 31 27 29 33 34
29 26 21 23 20 18 12 16 13 8 5 12 10 6 6 10 6 15 23 12 9 26 25 28 26 24 23 27 25 26 26 15 19 16 5 17 19 15 25 29 27 24 30 27 26
27 24 21 21 21 19 15 13 11 8 9 13 10 10 9 14 16 22 23 8 5 15 21 19 22 16 21 22 21 21 20 5 3 3 4 20 19 15 18 15 21 26 24 23 21
25 22 18 18 18 19 16 15 12 9 14 17 19 20 10 6 20 14 5 10 14 20 18 8 9 17 15 24 21 25 17 3 4 4 4 10 9 9 19 19 19 18 21 17 19
23 19 15 17 18 20 13 20 8 10 15 12 8 7 8 10 7 14 21 16 9 14 7 8 6 14 11 14 22 25 25 21 4 5 7 10 8 13 22 24 24 21 16 19 18
21 15 17 18 18 14 18 17 13 16 14 16 11 13 15 14 8 6 8 12 10 9 8 11 11 9 13 16 18 16 25 11 3 2 3 8 14 11 28 28 26 23 20 18 17
19 12 13 16 15 15 20 14 14 18 14 13 10 8 11 14 13 14 10 10 11 8 14 10 6 8 13 8 11 10 9 6 8 3 1 3 2 7 14 25 24 21 21 19 17
18 12 10 11 13 16 13 15 10 10 11 10 7 6 10 8 12 8 6 8 16 14 4 5 9 8 5 8 13 9 7 6 2 2 1 2 2 3 11 18 20 22 18 15 13
17 12 9 9 9 12 11 10 11 9 8 6 2 5 7 8 5 6 6 14 12 11 5 5 6 7 3 4 10 13 13 12 13 5 4 1 4 12 19 24 19 17 16 13 9
15 12 12 11 9 8 9 12 11 8 8 5 5 7 6 8 6 4 6 8 5 3 5 5 4 3 4 4 4 9 15 16 14 6 1 4 13 20 20 17 17 12 13 10 11
14 9 11 13 10 10 7 6 7 6 4 5 5 2 2 3 6 2 3 4 4 4 3 3 2 4 3 1 3 5 11 18 20 15 5 6 4 20 18 14 15 12 14 14 13
14 13 11 10 11 11 8 6 6 5 4 5 2 4 2 3 3 2 2 2 2 3 6 4 2 2 3 5 6 8 8 12 17 18 18 8 12 5 12 12 16 18 14 12 11
19 15 13 11 10 10 8 4 6 8 5 6 4 2 7 5 4 7 9 8 5 3 5 4 3 0 1 4 5 9 13 16 15 16 21 24 16 15 16 18 16 15 12 12 13
Wind_Direction
327 319 310 302 296 295 289 284 281 272 272 268 267 264 252 255 251 251 242 241 233 235 233 222 216 206 202 205 210 204 212 231 223 231 232 217 229 221 223 203 205 228 216 212 198
325 320 312 308 305 303 303 296 289 286 277 266 261 255 260 259 256 248 247 241 233 226 224 220 218 202 204 205 201 194 207 215 211 224 237 236 241 199 212 208 208 226 234 228 200
329 324 319 317 313 310 308 307 299 296 300 295 279 266 254 256 261 254 249 241 231 223 214 217 207 210 204 206 200 210 216 223 218 227 246 237 247 217 210 216 210 225 224 227 210
332 327 324 317 318 313 307 300 302 303 302 294 285 286 250 253 251 253 252 242 222 211 206 208 197 211 206 207 209 217 225 210 213 250 235 224 224 219 200 223 217 212 225 246 229
332 333 330 327 320 312 304 302 301 301 295 282 274 262 248 237 228 212 211 214 217 203 204 205 202 196 208 212 205 216 215 231 193 230 224 224 221 218 222 214 219 213 218 215 230
333 334 329 325 322 321 322 303 299 300 299 285 266 266 248 246 237 234 237 195 203 205 198 201 210 201 213 205 213 219 220 202 220 233 227 222 225 222 214 200 229 223 212 218 227
337 335 330 327 324 316 307 305 298 289 289 288 269 264 246 236 190 242 217 203 203 202 196 196 201 195 190 207 207 227 212 209 209 205 227 225 229 229 215 200 221 230 222 226 229
338 336 333 329 322 309 303 304 287 275 273 269 258 252 253 256 238 243 252 218 195 200 198 189 188 194 196 202 210 211 224 209 211 212 216 215 227 230 221 212 207 216 226 228 233
338 337 336 336 330 315 309 309 291 261 248 248 249 256 271 246 266 237 241 237 195 205 194 185 182 190 185 204 205 213 217 218 211 215 203 225 232 234 226 229 233 233 230 224 240
340 340 337 341 336 328 321 314 299 255 231 237 225 245 252 262 253 244 225 229 223 193 184 191 190 185 188 196 201 206 212 214 217 221 222 227 232 228 231 238 242 235 237 229 240
343 343 343 343 341 341 334 336 342 328 209 227 248 240 255 227 246 217 216 227 236 211 185 193 190 197 197 198 201 203 208 212 230 209 214 225 234 210 208 231 238 228 220 229 235
351 349 349 348 351 357 358 352 276 251 192 232 233 251 223 229 233 217 237 233 237 211 176 193 209 197 202 196 200 192 213 210 212 208 206 218 232 227 229 231 236 221 222 216 225
356 354 357 356 358 7 9 31 47 53 212 2 259 254 245 236 239 213 225 238 242 210 197 193 202 198 194 188 204 203 207 205 217 194 201 213 232 229 223 236 240 239 233 232 229
356 359 3 0 14 22 28 49 62 64 87 2 300 297 202 198 243 212 213 224 213 203 162 190 196 194 190 198 201 212 208 211 211 193 198 222 257 228 222 221 237 233 231 235 237
360 6 7 13 18 32 43 53 36 38 38 348 38 148 151 188 215 215 198 199 192 192 194 163 171 178 190 201 190 212 206 220 199 195 176 196 237 262 205 213 226 228 231 233 236
4 11 17 21 35 31 36 66 53 26 22 2 26 65 72 127 149 172 188 191 208 155 134 133 155 170 198 206 206 204 201 208 193 207 246 199 199 194 196 215 227 218 224 230 234
7 13 20 32 39 32 35 52 55 36 337 349 357 4 80 35 127 163 187 199 119 112 122 139 163 153 185 199 215 212 174 109 144 170 226 204 200 227 223 219 215 212 220 219 218
8 13 19 12 19 6 15 50 54 11 11 36 78 58 51 62 147 163 192 115 88 131 124 131 142 184 185 198 200 185 166 183 192 190 147 157 199 205 206 200 210 207 215 205 211
6 14 3 9 7 7 1 49 46 34 44 82 72 358 65 115 135 134 76 92 99 74 126 121 97 176 189 200 205 196 202 216 296 265 123 187 180 170 193 204 210 213 203 199 207
360 15 25 34 20 20 42 52 46 69 56 59 48 34 32 56 94 104 79 88 86 108 98 114 104 150 161 165 179 174 189 189 207 254 189 191 184 200 203 205 210 206 201 201 208
358 1 21 29 22 36 45 49 48 64 66 68 69 38 37 40 45 68 87 110 117 109 115 107 116 133 158 183 165 147 165 153 175 244 313 128 190 223 229 214 200 193 200 204 213
357 6 358 5 14 39 34 32 44 47 63 50 59 66 52 43 45 78 114 137 125 115 124 120 124 118 142 176 175 196 190 188 205 177 219 286 325 189 185 181 183 194 199 200 205
1 10 12 356 355 30 40 34 33 32 27 71 32 79 52 41 66 84 117 135 140 126 133 91 122 116 144 222 218 218 187 186 220 194 233 342 142 166 176 182 186 183 190 200 224
357 11 359 8 6 353 349 12 352 7 31 68 71 49 31 36 49 82 103 166 165 137 118 122 158 155 111 151 196 211 209 210 205 185 248 220 162 179 199 194 179 209 215 238 266
344 353 4 0 7 11 351 3 357 342 18 353 348 359 56 18 21 80 133 157 205 225 191 126 115 175 209 213 246 237 216 222 224 209 199 130 253 197 207 213 201 248 246 264 277
337 329 328 328 345 343 344 319 323 351 341 338 27 17 20 223 195 329 218 117 278 245 212 203 193 202 274 271 272 259 240 226 235 223 218 193 116 166 201 206 219 242 251 265 277
343 322 313 312 330 337 339 354 326 327 330 299 287 360 283 292 267 244 213 206 221 223 214 186 230 233 213 307 296 282 252 233 230 233 223 219 202 198 204 231 237 245 258 265 277